Location: Unspecified
(49.2170°N, 0.0000°E)
Time: 06:10:38
(UTC+00:00)

Courier 1B - Visible Passes

Search period start: 28 January 2021 00:00
Search period end: 07 February 2021 00:00
Orbit: 962 x 1209 km, 28.3° (Epoch: 27 January)

Date Brightness Start Highest point End Pass type
(mag) Time Alt. Az. Time Alt. Az. Time Alt. Az.
02 Feb 9.8 19:44:29 10° S 19:45:33 10° S 19:45:33 10° S visible
03 Feb 10.0 20:41:49 10° SSW 20:42:08 11° SSW 20:42:08 11° SSW visible
04 Feb 9.7 19:48:21 10° SSW 19:51:26 13° S 19:51:48 13° S visible
05 Feb 9.8 18:55:09 10° SSW 18:57:56 12° S 19:00:42 10° SSE visible
05 Feb 10.0 20:47:27 10° SSW 20:48:21 11° SSW 20:48:21 11° SSW visible
06 Feb 9.9 18:02:25 10° S 18:04:26 11° SSE 18:06:26 10° SSE visible
06 Feb 9.7 19:53:35 10° SSW 19:57:08 14° S 19:58:00 14° S visible
